Location: Mannheim
(49.4880°N, 8.4650°E)
Time: 05:07:44
(UTC+02:00)

ISS - Pass Details

Date: 19 September 2023
Orbit: 414 x 421 km, 51.6° (Epoch: 02 October)

Event Time Altitude Azimuth Distance (km) Brightness Sun altitude
Rises 20:44:08 0° 253° (WSW) 2,350 1.1 -12.4°
Reaches altitude 10° 20:46:13 10° 255° (WSW) 1,490 -0.1 -12.8°
Maximum altitude 20:49:34 83° 343° (NNW) 425 -3.8 -13.3°
Enters shadow 20:51:45 20° 71° (ENE) 1,024 -2.3 -13.6°
